Regional Weather Roundup
Issued by NWS Pendleton, OR

Home | Current Version | Previous Version | Text Only | Print | Product List | Glossary On
Versions: 1 2 3 4 5 6 7 8 9 10 11 12 13 14 15 16 17 18 19 20 21 22 23 24 25 26 27 28 29 30 31 32 33 34 35 36 37 38 39 40 41 42 43 44 45 46 47 48 49 50
000
ASUS46 KPDT 281010
RWRPDT
PENDLETON REGIONAL WEATHER ROUNDUP
NATIONAL WEATHER SERVICE PENDLETON OREGON
300 AM PDT TUE MAR 28 2017

NOTE: FAIR INDICATES FEW OR NO CLOUDS BELOW 12,000 FEET WITH NO
SIGNIFICANT WEATHER AND/OR OBSTRUCTIONS TO VISIBILITY.

# INDICATES UNOFFICIAL STATION AND DATA

WAZ520-281110-
EAST SLOPES OF WASHINGTON CASCADES

CITY            SKY/WX      TMP DP  RH  WIND    PRES   REMARKS
#CLE ELUM HS    N/A         37  33  85  SW3     30.14F
#CLE ELUM LAKE  N/A         36  32  85  CALM    30.21F
#GLENWOOD       N/A         41  37  86  SW7     30.27S
#NELSON 3SW     N/A         32  31  96  CALM    30.45F
#NILE           N/A         34  32  92  CALM    29.49F
#TEANAWAY 4NE   N/A         38  36  92  CALM    N/A
#TROUT LAKE 1NE N/A         38  35  89  CALM    30.29F
#TROUT LAKE 1E  N/A         37  34  89  CALM    30.28S
$$

WAZ521-281110-
SIMCOE HIGHLANDS

CITY            SKY/WX      TMP DP  RH  WIND    PRES   REMARKS
#BICKLETON HS   N/A         37  32  82  SW14    30.22S WCI 28
#CENTERVILLE 1SWN/A         40  35  82  SW6     30.26R
#GOLDENDALE 1NE N/A         41  28  59  SW5     N/A
#GOLDENDALE 4W  N/A         41  19  41  W8      30.27F
#GOODNOE HILLS  N/A         43  35  73  W12     30.17R WCI 37
#LYLE 6NE       N/A         40  38  92  S5      30.27S
#PITT 4SE       N/A         36  34  92  SW3     30.32S
$$

WAZ026-281110-
KITTITAS VALLEY

CITY            SKY/WX      TMP DP  RH  WIND    PRES   REMARKS
ELLENSBURG AP   CLOUDY      43  34  70  NW8     30.19F
#ELLENSBURG CWU N/A         40  34  79  CALM    30.16S
#ELLENSBURG 3NE N/A         40  35  82  CALM    28.27S
#ELLENSBURG 13S N/A         38  34  85  CALM    N/A
#KITTITAS 4N    N/A         38  32  79  CALM    30.20S
#KITTITAS 3S    N/A         36  33  89  CALM    30.22S
#THORP 6N       N/A         37  34  89  W7      30.24F
$$

WAZ027-281110-
YAKIMA VALLEY

CITY            SKY/WX      TMP DP  RH  WIND    PRES   REMARKS
SUNNYSIDE AP    MOCLDY      37  33  85  NE3     30.24R
YAKIMA AIRPORT  MOCLDY      40  34  79  NW7     30.22F
YAKIMA-VAGABOND MOCLDY      37  32  82  SW3     30.19F
#DONALD 2NE     N/A         59   3  10  S14     28.91S
#GRANDVIEW      N/A         40  32  73  CALM    30.26S
#MABTON         N/A         41  35  79  CALM    30.23S
#MOXEE 2E       N/A         43   0  16  E2      30.16S
#NACHES 2SW     N/A         42  35  76  CALM    30.20S
#TERRACE HTS    N/A         40  33  76  CALM    30.21S
#TOPPENISH      N/A         43  36  76  E1      30.15F
#WEST VALLEY    N/A         40  34  79  CALM    30.22F
#W YAKIMA       N/A         42  34  73  CALM    30.23F
#WHITE SWAN 5E  N/A         47  36  65  CALM    30.22S
#WILEY CITY 3W  N/A         39  31  73  CALM    30.18F
$$

WAZ028-281110-
LOWER COLUMBIA BASIN...WASHINGTON

CITY            SKY/WX      TMP DP  RH  WIND    PRES   REMARKS
HANFORD         PTCLDY      44  34  68  SW8     30.19R
PASCO           PTCLDY      46  36  68  SW12    30.27R WCI 40
PROSSER AWOS    N/A         39  34  82  E5      30.27S
RICHLAND AWOS   PTCLDY      47  38  71  SW12    30.25R WCI 42
#BENTON CITY    N/A         41  35  79  CALM    30.16S
#CONNELL 5N     N/A         38  36  92  S1      30.24R
#CONNELL 5NW    N/A         39  36  89  S5      30.19R
#ELTOPIA 6NW    N/A         40  36  85  CALM    29.20R
#KAHLOTUS       N/A         40  36  85  SW8     30.24R
#KENNEWICK 3S   N/A         42  37  82  SW9     30.26R
#PATERSON       N/A         45  39  79  NW5     30.27R
#SAGEMOOR 2W    N/A         40  35  82  S1      30.13R
#TOUCHET 2S     N/A         46  37  71  S14     30.26R WCI 40
#WEST PASCO     N/A         46  37  71  S5      30.28S
$$

WAZ029-281110-
FOOTHILLS OF THE BLUES...WASHINGTON

CITY            SKY/WX      TMP DP  RH  WIND    PRES   REMARKS
WALLA WALLA AP  CLOUDY      46  36  68  S8      30.28S
#CLYDE 6NW      N/A         40  36  85  SW13    30.25S WCI 32
#DAYTON SCHOOL  N/A         44  29  55  S7      30.27S
#LOWDEN 2SE     N/A         46  37  71  W6      30.25S
#PLEASANT VIEW 1N/A         38  35  89  S10     30.29S
#PRESCOTT       N/A         43  37  79  SW1     30.26S
#WHITMAN COLLEGEN/A         46  37  71  S6      30.34R
#WAITSBURG 5S   N/A         41  36  82  S8      30.38S
#WAITSBURG 8N   N/A         39  N/A N/A S10     30.17S
#WALLA WALLA 5E N/A         46  37  71  S12     N/A    WCI 40
#WALLA WALLA U  N/A         48  38  68  CALM    30.28F
#WHITMAN MISSIONN/A         48  38  68  CALM    30.30S
$$

WAZ030-281110-
BLUE MOUNTAINS...WASHINGTON

CITY            SKY/WX      TMP DP  RH  WIND    PRES   REMARKS
#DIXIE 5SE      N/A         38  32  79  S10     30.17S
$$

ORZ009-041-WAZ024-281110-
COLUMBIA RIVER GORGE

CITY            SKY/WX      TMP DP  RH  WIND    PRES   REMARKS
HOOD RIVER AP   MOCLDY      45  39  79  NW8     30.30S
THE DALLES AP   CLOUDY      48  39  71  W9      30.30S
#ARLINGTON AIRPON/A         44  37  76  W8      30.29S
#CELILO DOT     N/A         48  33  56  SW5     N/A
#LYLE           N/A         47  41  79  W9      30.32S
#MOSIER 1S      N/A         43  34  70  CALM    30.27S
#MURDOCK        N/A         47  40  76  NW10    30.28R
#RUFUS DOT      N/A         49  37  63  W12     N/A    WCI 44
#SMITHVILLE     N/A         47  41  79  N9      30.26R

$$

ORZ510-281110-
NORTH CENTRAL OREGON

CITY            SKY/WX      TMP DP  RH  WIND    PRES   REMARKS
#ANTELOPE       N/A         36  32  85  CALM    30.20R
#CHENOWITH 1W   N/A         39  37  92  NW18    N/A    WCI 30
#COW CYN RST AREN/A         38  32  79  CALM    N/A
#DUFUR          N/A         38  36  92  CALM    30.27S
#DUFUR 9E       N/A         38  35  89  CALM    30.36S
#GRASS VALLEY 1SN/A         39  34  82  SW5     30.38S
#KENT DOT       N/A         39  28  64  N9      N/A
#MAUPIN SCHOOL  N/A         45  37  73  CALM    30.33R
#MORO SCHOOL    N/A         40  39  96  CALM    30.33S
#SHANIKO 5WSW   N/A         36  27  69  N3      N/A
#SHANIKO 4NW    N/A         36  30  79  SW2     30.24R
#TYGH VALLEY 2NEN/A         44  35  70  CALM    30.28S
#WAPANITIA AIRPON/A         41  34  76  W3      30.32S
#WASCO DOT      N/A         42  36  79  SW5     N/A
#WASCO 5NE      N/A         41  37  86  SW2     30.30R
$$

ORZ511-281110-
CENTRAL OREGON

CITY            SKY/WX      TMP DP  RH  WIND    PRES   REMARKS
BEND AIRPORT    CLOUDY      36  30  79  CALM    30.27R
MADRAS AIRPORT  CLOUDY      41  30  65  S5      30.30R
PRINEVILLE AP   CLOUDY      36  34  92  CALM    30.27R
REDMOND AIRPORT CLOUDY      36  29  75  CALM    30.28R
#ASHWOOD SCHOOL N/A         36  33  89  CALM    30.23S
#BEND 1SW       N/A         36  31  82  S2      N/A
#BEND-AWBREY    N/A         36  31  82  S3      30.32R
#BEND-KIM LN    N/A         37  31  79  E1      30.26R
#CULVER         N/A         40  31  70  SW6     30.24R
#CULVER 8W      N/A         40  31  70  W1      30.24R
#POWELL BUTTE   N/A         37  29  72  E1      30.19R
#PRINEVILLE     N/A         36  32  85  CALM    30.42R
#PRINEVILLE 3N  N/A         37  33  85  N3      30.32R
#WARM SPRINGS   N/A         40  35  82  CALM    30.24R

$$


ORZ509-281110-
EAST SLOPES OF OREGON CASCADES

CITY            SKY/WX      TMP DP  RH  WIND    PRES   REMARKS
SISTERS AWOS    N/A         37  30  75  CALM    30.22R
#BLUE BOX PASS  N/A         31  N/A N/A NW3     N/A
#CAMP SHERMAN   N/A         37  31  79  W1      30.37R
#LA PINE DOT    N/A         34  28  78  SW3     N/A
#LA PINE 4SW    N/A         33  28  82  CALM    30.24F
#LA PINE 4NW    N/A         33  28  82  CALM    30.38F
#LAVA BUTTE DOT N/A         33  27  78  CALM    N/A
#SISTERS 3N     N/A         38  26  62  W3      30.35R
#SUNRIVER       N/A         35  31  85  S1      30.35R
#TUMALO 3W      N/A         36  29  75  NE2     30.20R
#WANOGA BUTTE D N/A         28  25  88  NW14    N/A    WCI 17

$$

ORZ044-281110-
LOWER COLUMBIA BASIN...OREGON

CITY            SKY/WX      TMP DP  RH  WIND    PRES   REMARKS
HERMISTON       CLOUDY      44  38  79  SW7     30.28R
#BOARDMAN SCHOOLN/A         47  38  71  N7      30.28R
#BOARDMAN 8SW   N/A         45  39  79  SW7     30.27S
#ECHO 8SW       N/A         45  37  73  W5      30.29R
#I-84 EX 198 DOTN/A         44  35  70  N9      N/A
#IONE SCHOOL    N/A         39  22  50  CALM    30.31S
#UMATILLA       N/A         46  35  65  SW10    30.21R
$$

ORZ507-281110-
NORTHERN FOOTHILLS OF THE BLUES

CITY            SKY/WX      TMP DP  RH  WIND    PRES   REMARKS
PENDLETON AIRPT PTCLDY      39  35  85  S8      30.27S
#ADAMS 3WNW     N/A         39  35  85  CALM    30.29S
#ATHENA         N/A         41  35  79  CALM    30.32S
#CAYUSE         N/A         42  36  79  E1      30.29S
#HELIX SCHOOL   N/A         39  35  85  N1      30.29S
#HELIX 3N       N/A         37  33  85  S6      30.22S
#HOLDMAN 5SE    N/A         39  35  85  S3      30.26R
#HOLDMAN 6E     N/A         38  35  89  SE2     30.10R
#M-F FERNDALE   N/A         47  35  63  CALM    30.25S
#M-F GROVE ELEM N/A         45  34  65  S1      30.23F
#M-FREEWATER 5SEN/A         45  35  68  S2      30.26F
#PENDLETON DNTN N/A         41  29  62  CALM    30.28S
#PDT AQUATIC CTRN/A         40  32  73  CALM    30.26F
#PDT SUNRIDGE   N/A         39  35  85  S1      30.30S
#PENDLETON 7NW  N/A         41  34  76  CALM    25.80S
#PILOT ROCK 1S  N/A         39  29  67  SE2     30.27S
#PILOT ROCK     N/A         39  33  79  SW2     30.28S
#TUTUILLA       N/A         38  34  85  CALM    30.30S
#UMAPINE 2E     N/A         47  38  71  N3      30.26R
#WESTON SCHOOL  N/A         42  32  67  SW2     30.29S

$$

ORZ508-281110-
SOUTHERN FOOTHILLS OF THE BLUES

CITY            SKY/WX      TMP DP  RH  WIND    PRES   REMARKS
LEXINGTON       CLOUDY      39  34  82  E6      30.31S
#AJAX           N/A         39  28  64  S2      30.40R
#CONDON SCHOOL  N/A         39  34  82  SW6     30.19S
#CONDON 5W      N/A         36  30  79  SW6     30.22R
#HEPPNER EOC    N/A         39  33  79  SE1     30.24S
#HEPPNER 4NE    N/A         36  31  82  CALM    30.30S
#LEXINGTON 2SE  N/A         39  34  82  SE6     30.23F
#MIKKALO        N/A         41  34  76  S5      30.36F
#OLEX 4N        N/A         42  38  86  W6      30.26R
#RUGGS 5NE      N/A         37  32  82  S3      30.36S
#RUGGS 2SW      N/A         39  32  76  SW3     30.32S

$$

ORZ502-503-281110-
BLUE MOUNTAINS

CITY            SKY/WX      TMP DP  RH  WIND    PRES   REMARKS
MEACHAM         MOCLDY      32  28  85  CALM    30.24R
#BATTLE MTN DOT N/A         31  27  85  CALM    N/A
#GREENHORN 9SW  N/A         32  31  96  CALM    26.42S
#HARDMAN 10S    N/A         33  29  85  CALM    30.43S
#HEPPNER 15SE   N/A         31  28  88  CALM    30.23F
#LADD CYN SMT   N/A         35  34  96  NE3     N/A
#LADD CREEK ODOTN/A         35  34  96  CALM    N/A
#LONG CREEK HS  N/A         32  32  100 CALM    N/A
#N POWDER DOT   N/A         34  33  96  N6      N/A
#PIKES PEAK     N/A         36  30  79  W14     27.99S WCI 27
#TOLLGATE       N/A         29  28  96  SW3     30.03S
#TROY SCHOOL    N/A         39  35  85  CALM    30.14S
#UKIAH          N/A         30  29  96  N1      30.24S
#WESTON 4E      N/A         36  33  89  S1      30.27S
$$

ORZ505-281110-
JOHN DAY BASIN

CITY            SKY/WX      TMP DP  RH  WIND    PRES   REMARKS
JOHN DAY        MOCLDY      34  31  89  CALM    30.26R
#JOHN DAY KJDY  N/A         33  N/A N/A N1      30.07R
#ANTELOPE 9ESE  N/A         40  35  82  CALM    N/A
#DAYVILLE SCHOOLN/A         36  29  75  CALM    30.24R
#MITCHELL       N/A         36  32  85  CALM    30.41R
#MITCHELL 8NW   N/A         38  29  70  CALM    30.24R
#MONUMENT HS    N/A         36  32  85  CALM    30.22S
#MT. VERNON 5SE N/A         34  28  78  CALM    30.20R
#SPRAY SCHOOL   N/A         38  N/A N/A CALM    N/A
#WINLOCK        N/A         37  32  82  CALM    30.21S
$$

ORZ506-281110-
OCHOCO AND JOHN DAY HIGHLANDS

CITY            SKY/WX      TMP DP  RH  WIND    PRES   REMARKS
#HORSE RIDGE DO N/A         31  26  81  SE2     N/A
#PAULINA SCHOOL N/A         33  29  85  CALM    N/A
#PINE MTN OBS   N/A         28  25  88  NW2     N/A
#PRAIRIE CITY   N/A         30  27  88  CALM    30.41
#SENECA 9NW     N/A         27  26  96  CALM    30.31R
$$

ORZ049-281110-
GRANDE RONDE VALLEY

CITY            SKY/WX      TMP DP  RH  WIND    PRES   REMARKS
LA GRANDE       MOCLDY      37  34  89  CALM    30.25S
#COVE           N/A         38  37  96  CALM    30.27S
#COVE SCHOOL    N/A         38  35  89  CALM    30.25F
#COVE 6NW       N/A         37  35  92  CALM    30.32S
#ELGIN 3N       N/A         36  32  85  CALM    30.22R
#ELGIN 1E       N/A         39  35  85  CALM    N/A
#IMBLER SCHOOL  N/A         37  35  92  CALM    30.21S
#ISLAND CITY 4N N/A         44  43  96  CALM    30.33F
#LADD CYN DOT   N/A         38  37  96  SE8     N/A
#UNION 1S       N/A         38  36  92  CALM    30.32S
$$

ORZ050-281110-
WALLOWA COUNTY

CITY            SKY/WX      TMP DP  RH  WIND    PRES   REMARKS
JOSEPH AIRPORT  CLOUDY      32  28  85  CALM    30.23F
#IMNAHA SCHOOL  N/A         40  35  82  SE1     30.27R
#IMNAHA 10S     N/A         52  33  48  S7      29.84S
#JOSEPH 3N      N/A         31  25  78  CALM    30.23F
#JOSEPH 3W      N/A         N/A N/A N/A S3      30.03F
#LOSTINE        N/A         31  29  92  CALM    30.11S
#LOSTINE 3SE    N/A         31  29  92  S1      30.28F
#MT HOWARD 8000 N/A         -90 -90 100 CALM    30.08F
#PROMISE 1S     N/A         35  30  82  CALM    30.37F
#WALLOWA SCHOOL N/A         35  33  92  CALM    30.21F



$$



USA.gov is the U.S. government's official web portal to all federal, state and local government web resources and services.